Flag for Germany Weather past 2 weeks in Fürstenwalde/Spree, Brandenburg, Germany

36 °F

Rain. Low clouds.

Feels Like: 34 °F
Forecast: 40 / 46 °F
Wind: 3 mph from South

Location: Lindenberg

Current Time: Nov 30, 2015 at 10:15:05 PM

Latest Report: Nov 30, 2015 at 9:00 PM

Visibility: 4 mi

Pressure: 29.77 "Hg

Humidity: 97%

Dew point: 35 °F

Location of Fürstenwalde/SpreeLocation

Historic Weather in Fürstenwalde/Spree — Graph


Fürstenwalde/Spree temperature yesterday

Maximum temperature yesterday: 46 °F (at 9:00 PM)
Minimum temperature yesterday: 34 °F (at 2:00 AM)
Average temperature yesterday: 40 °F

Past Weeks' High & Low Weather Summary

High56 °F (Nov 17, 8:00 PM)100% (Nov 27, 9:00 AM)30.26 "Hg (Nov 27, 9:00 AM)
Low28 °F (Nov 24, 9:00 AM)58% (Nov 30, 1:00 PM)29.35 "Hg (Nov 21, 1:00 PM)
Average41 °F85%29.79 "Hg
* Reported Nov 15 9:00 PM — Nov 30 9:00 PM, Fürstenwalde/Spree, Weather by CustomWeather, © 2015

Note: Actual official high and low records may vary slightly from our data, if they occured in-between our weather recording intervals... More about our weather records


Fürstenwalde/Spree weather history for previous 24 hours

Time TempWeatherWind HumidityBarometerVisibility
9:00 PM
Mon, Nov 30
36 °FRain. Low clouds.3 mph97%29.77 "Hg4 mi
8:00 PM36 °FRain. Low clouds.5 mph95%29.81 "Hg5 mi
7:00 PM37 °FLight rain. Low clouds.6 mph93%29.85 "Hg7 mi
6:00 PM38 °FLight rain. Overcast.9 mph86%29.89 "Hg12 mi
5:00 PM43 °FOvercast.7 mph68%29.88 "Hg16 mi
3:00 PM44 °FOvercast.8 mph65%29.91 "Hg19 mi
2:00 PM44 °FOvercast.9 mph62%29.93 "Hg19 mi
1:00 PM45 °FOvercast.9 mph58%29.91 "Hg19 mi
12:00 PM45 °FOvercast.10 mph60%29.91 "Hg19 mi
11:00 AM44 °FPartly sunny.10 mph63%29.90 "Hg22 mi
10:00 AM40 °FRain showers. Partly sunny.8 mphN/A29.89 "Hg9 mi
9:00 AM43 °FPartly sunny.10 mph69%29.85 "Hg25 mi
8:00 AM42 °FScattered clouds.9 mph71%29.82 "Hg22 mi
7:00 AM43 °FPassing clouds.10 mph69%29.78 "Hg25 mi
4:00 AM43 °FPassing clouds.9 mph78%29.68 "Hg25 mi
3:00 AM44 °FLight rain. Overcast.10 mph79%29.65 "Hg19 mi
1:00 AM45 °FLight rain. Overcast.8 mph89%29.60 "Hg19 mi
Weather by CustomWeather, © 2015

See weather overviewHow to use our weather pages